Powrót do katalogu

STARLINK-35762

AktywnyŁącznośćVLEO
NORAD 67172·PAYLOAD·🇺🇸 United States

Wystrzelony Dec 17, 2025 z Cape Canaveral Space Force Station

Loading…

Następne Przeloty (najbliższe 24 godziny)

TLE

ŚwieżeSource: CelesTrak SupGP

Epoka: Sep 14, 2026, 15:10 UTC

1 67172C 25303K   26257.63243056  .00047835  00000+0  17333-2 0  2579
2 67172  43.0008 323.9804 0001454 280.8068 233.6307 15.27541427    18

Śledź STARLINK-35762 w czasie rzeczywistym z AllMySat

Download on the App Store